Laurinburg-Maxton, NC

12:56 PM EDT on August 18, 2017 (GMT -0400)
Laurinburg-Maxton

Weather History for KMEB - January, 2013

Change the Weather History Date:

Monday, January 7, 2013

  Actual Average (KHFF) Record (KHFF)
Temperature  
Mean Temperature 41 °F -  
Max Temperature 54 °F 55 °F 71 °F (2005)
Min Temperature 28 °F 32 °F 9 °F (2014)
Degree Days  
Heating Degree Days 24    
Moisture  
Dew Point 32 °F    
Average Humidity 79    
Maximum Humidity 100    
Minimum Humidity 40    
Precipitation  
Precipitation 0.00 in - - ()
Sea Level Pressure  
Sea Level Pressure 30.34 in    
Wind  
Wind Speed 5 mph (NE)    
Max Wind Speed 25 mph    
Max Gust Speed 83 mph    
Visibility 8 miles    
Events Fog    
Averages and records for this station are not official NWS values.
T = Trace of Precipitation, MM = Missing Value Source: NWS Daily Summary

Daily Weather History Graph

Daily Weather History Graph

Search for Another Location

Airport or City:

Trip Planner

Search our weather history database for the weather conditions in past years. The results will help you decide how hot, cold, wet, or windy it might be!

Date:

Astronomy

Jan. 07, 2013 Rise Set
Actual Time 7:25 AM EST 5:22 PM EST
Civil Twilight 6:57 AM EST 5:50 PM EST
Nautical Twilight 6:26 AM EST 6:21 PM EST
Astronomical Twilight 5:55 AM EST 6:52 PM EST
Moon 2:50 AM EST (1/7) 1:30 PM EST (1/7)
Length of Visible Light 10h 52m
Length of Day
9h 56m
Waning Crescent, 23% of the Moon is Illuminated
Jan 7
Waning Crescent
Jan 11
New
Jan 18
First Quarter
Jan 26
Full
Feb 3
Last Quarter

Hourly Weather History & Observations

Time (EST) Temp. Windchill Dew Point Humidity Pressure Visibility Wind Dir Wind Speed Gust Speed Precip Events Conditions
12:06 AM 44.6 °F 40.7 °F 42.8 °F 93% 30.20 in 7.0 mi NNE 6.9 mph - N/A   Overcast
12:52 AM 45.0 °F 41.2 °F 41.0 °F 86% 30.21 in 10.0 mi NNE 6.9 mph - N/A   Overcast
1:52 AM 43.0 °F 41.3 °F 39.0 °F 86% 30.22 in 10.0 mi North 3.5 mph - N/A   Scattered Clouds
2:52 AM 39.0 °F - 37.9 °F 96% 30.23 in 10.0 mi Calm Calm - N/A   Clear
3:52 AM 36.0 °F 32.1 °F 35.1 °F 97% 30.24 in 10.0 mi NNW 4.6 mph - N/A   Clear
4:52 AM 33.1 °F - 32.0 °F 96% 30.26 in 3.0 mi Calm Calm - N/A   Clear
5:08 AM 32.0 °F - 30.2 °F 93% 30.26 in 1.8 mi Calm Calm - N/A   Clear
5:38 AM 32.0 °F - 30.2 °F 93% 30.27 in 3.0 mi Calm Calm - N/A   Clear
5:52 AM 32.0 °F 27.5 °F 30.9 °F 96% 30.27 in 5.0 mi NNW 4.6 mph - N/A   Clear
6:41 AM 30.2 °F - 30.2 °F 100% 30.31 in 1.8 mi Calm Calm - N/A   Clear
6:52 AM 30.0 °F - 30.0 °F 100% 30.31 in 0.2 mi Calm Calm - N/A Fog Light Freezing Fog
7:01 AM 30.2 °F - 30.2 °F 100% 30.32 in 1.0 mi Calm Calm - N/A   Clear
7:14 AM 28.4 °F 24.6 °F 28.4 °F 100% 30.32 in 3.0 mi NW 3.5 mph - N/A   Clear
7:52 AM 30.0 °F 16.0 °F 28.9 °F 96% 30.35 in 7.0 mi North 25.3 mph 82.9 mph N/A   Clear
7:59 AM 30.2 °F - 30.2 °F 100% 30.35 in 7.0 mi North - - N/A   Clear
8:07 AM 30.2 °F - 30.2 °F 100% 30.36 in 8.0 mi Calm Calm - N/A   Clear
8:52 AM 39.0 °F 34.0 °F 33.1 °F 79% 30.38 in 10.0 mi NNE 6.9 mph - N/A   Clear
9:52 AM 45.0 °F 40.1 °F 34.0 °F 65% 30.40 in 10.0 mi NNE 9.2 mph - N/A   Clear
10:52 AM 48.9 °F - 33.1 °F 54% 30.41 in 10.0 mi NNE 12.7 mph - N/A   Clear
11:52 AM 51.1 °F - 32.0 °F 48% 30.40 in 10.0 mi NE 10.4 mph - N/A   Clear
12:52 PM 52.0 °F - 30.0 °F 43% 30.38 in 10.0 mi ENE 6.9 mph - N/A   Clear
1:52 PM 54.0 °F - 30.0 °F 40% 30.38 in 10.0 mi NE 4.6 mph - N/A   Clear
2:52 PM 53.1 °F - 30.0 °F 41% 30.38 in 10.0 mi East 3.5 mph - N/A   Clear
3:52 PM 53.1 °F - 30.0 °F 41% 30.39 in 10.0 mi ENE 4.6 mph - N/A   Clear
4:52 PM 51.1 °F - 32.0 °F 48% 30.40 in 10.0 mi East 5.8 mph - N/A   Clear
5:52 PM 45.0 °F 42.6 °F 32.0 °F 60% 30.41 in 10.0 mi East 4.6 mph - N/A   Clear
6:52 PM 41.0 °F 38.0 °F 33.1 °F 73% 30.43 in 10.0 mi ESE 4.6 mph - N/A   Clear
7:52 PM 41.0 °F 37.1 °F 32.0 °F 70% 30.43 in 10.0 mi East 5.8 mph - N/A   Clear
8:52 PM 39.0 °F - 32.0 °F 76% 30.44 in 10.0 mi Calm Calm - N/A   Clear
9:52 PM 37.0 °F 33.3 °F 30.9 °F 79% 30.43 in 10.0 mi NE 4.6 mph - N/A   Clear
10:52 PM 35.1 °F 30.1 °F 32.0 °F 89% 30.42 in 9.0 mi NE 5.8 mph - N/A   Clear
11:52 PM 34.0 °F - 30.0 °F 85% 30.43 in 10.0 mi Calm Calm - N/A   Clear